NOAA 16 DEB, 41297

Orbit data source: Space-Track

NOAA 16 DEB, 41297 is space debris in SSO originally from a launch on Thu, 21 Sep 2000 UTC launched from the Air Force Western Test Range (AFWTR). Debris objects in space refer to the collection of defunct objects orbiting the Earth. Examples of debris include non-operational satellites, rocket bodies, and fragments generated from explosions, collisions, or faulty payload assembly.

Loading next visibility...
Identifier
41297, 2000-055GZ
Orbit
SSO
Country
Flag of USUS
Related business
Manufacturer
Unknown
Mission
Spacecraft
Bus & Motor
Unknown
Mass
Unknown
Launch date (UTC)
2000-09-21 (26 years ago)
Launch vehicle
Unknown
Launch site
Air Force Western Test Range (AFWTR)
Object type
Payload
Rocket body
Debris
Shape & HBR
Unknown shape, 0.1 m
Radar Cross Section
Medium (>0.1 m² and <1 m²)

Expand to show TLE details & history
Last TLE update: 2 days ago

TLE from 2 days ago
0 NOAA 16 DEB
1 41297U 00055GZ  26205.41509599  .00003243  00000-0  16327-2 0  9993
2 41297  98.9564 270.2226 0057612 306.7553  52.8339 14.16244139541293
Epoch: 2026-07-24T09:57Z
TLE epoch observation values (Epoch: 2026-07-24T09:57:44.293Z)
Latitude
-0.00005°
Longitude
178.64599°
Altitude
816.016 km
Speed
7.458 km/s
True Right ascension
18h 00m 53s
True Declination
0° 00' 00"
Sunlit
Object was in full shadow at epoch
Visualization orbit readout
Latitude
Unknown
Longitude
Unknown
Altitude
Unknown
Speed
Unknown
Apparent Right ascension
Unknown
Apparent Declination
Unknown
Sunlit
N/A
Visualization observer readout
Local Sidereal Time
23:37:28
Azimuth
Unknown
Elevation
Unknown
Doppler factor
Unknown
Orbital elements
Apogee altitude
876.816 km
Perigee altitude
793.7 km
Semi-major axis
7,213.395 km
Eccentricity
0.00576
Inclination
98.9564°
RAAN
270.2226°
Arg. of periapsis
306.7553°
True anomaly
53.36228°
Mean anomaly
52.8339°
Eccentric anomaly
53.09786°
Mean motion
3.54269 °/min
Orbital period
101.62 mins
BSTAR
0.0016327
Loading maneuver chart data...
Computing Atmospheric mass density...
Loading historical data...
Loading historical data...
Loading historical data...
Loading historical data...
Loading historical data...
Loading historical data...
Loading historical data...

Documentation

Showing up to 5 results
|